Regional Weather Roundup
Issued by NWS

Home | Current Version | Previous Version | Text Only | Print | Product List | Glossary Off
Versions: 1 2 3 4 5 6 7 8 9 10 11 12 13 14 15 16 17 18 19 20 21 22 23 24 25 26 27 28 29 30 31 32 33 34 35 36 37 38 39 40 41 42 43 44 45 46 47 48 49 50

000
ASUS45 KABQ 282110
RWRNM
WEATHER ROUNDUP FOR NEW MEXICO
NATIONAL WEATHER SERVICE ALBUQUERQUE NM
300 PM MDT SAT MAR 28 2015

NOTE: "FAIR" MEANS FEW OR NO CLOUDS BELOW 12,000 FEET AGL WITH NO
       SIGNIFICANT WEATHER OR OBSTRUCTIONS TO VISION.

      THIS PRODUCT IS RELEASED AS TWO VERSIONS.  ONE VERSION NEAR
      THE TOP OF THE HOUR CONTAINING PRELIMINARY DATA FROM ALBUQUERQUE
      AND OTHER STATIONS.  A FINAL VERSION WITH ADDITIONAL DATA IS
      ISSUED ABOUT 10 MINUTES AFTER THE HOUR.

NMZ501-503-504-510>518-282200-
NORTHWEST PLATEAU/NORTHCENTRAL MOUNTAINS

CITY           SKY/WX    TMP DP  RH WIND       PRES   REMARKS
FARMINGTON     SUNNY     75  21  13 W12G25    30.15F
LOS ALAMOS     SUNNY     66  21  17 E7        30.23F
SANTA FE       SUNNY     70  18  13 S6        30.17F
TAOS           SUNNY     70  19  14 W15       30.20F
ANGEL FIRE     FAIR      61  23  23 W18G25    30.27F

$$
NMZ402-403-502-505>509-282200-
WESTCENTRAL MOUNTAINS/SOUTHWEST MOUNTAINS

CITY           SKY/WX    TMP DP  RH WIND       PRES   REMARKS
GALLUP         SUNNY     75   6   7 W20G29    30.22F
GRANTS         SUNNY     75   7   7 NW14G25   30.22F
SILVER CITY    SUNNY     79   1   5 W18G28    30.22F

$$
NMZ407-409-411-412-282200-
SOUTHERN DESERTS

CITY           SKY/WX    TMP DP  RH WIND       PRES   REMARKS
LORDSBURG      FAIR      82   7   5 NW15      30.15F
DEMING         SUNNY     85  12   6 SW17G30   30.12F
LAS CRUCES     SUNNY     83  15   8 CALM      30.14F
HOLLOMAN AFB   MOSUNNY   83  13   7 NW12      30.08F
ALAMOGORDO     MOSUNNY   82  16   8 N13       30.11F
T OR C         SUNNY     83   9   6 MISG      30.10F

$$
NMZ519>523-282200-
CENTRAL VALLEYS/CENTRAL HIGHLANDS

CITY           SKY/WX    TMP DP  RH WIND       PRES   REMARKS
ALBUQUERQUE    SUNNY     77  20  12 W17       30.14F
DOUBLE EAGLE   SUNNY     75  19  12 VRB6      30.18F
MORIARTY ARPT  FAIR      76  13   9 NW15G24   30.19F
CLINES CORNERS SUNNY     72  14  11 NW24G32   30.19F
BELEN          FAIR      78  19  10 S9        30.12F
SOCORRO        FAIR      81  22  11 SE10      30.11F

$$
NMZ524>526-539-540-282200-
SOUTHCENTRAL MOUNTAINS

CITY           SKY/WX    TMP DP  RH WIND       PRES   REMARKS
RUIDOSO        SUNNY     72  14  11 W14G25    30.25F

$$
NMZ527>531-282200-
NORTHEAST HIGHLANDS/NORTHEAST PLAINS

CITY           SKY/WX    TMP DP  RH WIND       PRES   REMARKS
LAS VEGAS      SUNNY     71  18  13 S10       30.16F
RATON          SUNNY     73  15  11 SE10G23   30.09F
CLAYTON        SUNNY     79  20  11 VRB5      30.04F

$$
NMZ532>537-282200-
EASTCENTRAL PLAINS

CITY           SKY/WX    TMP DP  RH WIND       PRES   REMARKS
TUCUMCARI      SUNNY     83  18   9 VRB3      30.02F
CANNON AFB     SUNNY     81  17   9 NW13      30.04F
CLOVIS AIRPORT SUNNY     81  23  12 N10       30.04F

$$
NMZ028-029-538-282200-
SOUTHEAST PLAINS

CITY           SKY/WX    TMP DP  RH WIND       PRES   REMARKS
ROSWELL        SUNNY     86  23  10 NW6       30.02F
ARTESIA        SUNNY     86  30  13 VRB7G16   30.02F
CARLSBAD       SUNNY     88  24  10 NW5       29.99F
HOBBS          MOSUNNY   84  23  10 W13G21    30.02F


$$



USA.gov is the U.S. government's official web portal to all federal, state and local government web resources and services.